Regional Weather Roundup
Issued by NWS

Home | Current Version | Previous Version | Graphics & Text | Print | Product List | Glossary On
Versions: 1 2 3 4 5 6 7 8 9 10 11 12 13 14 15 16 17 18 19 20 21 22 23 24 25 26 27 28 29 30 31 32 33 34 35 36 37 38 39 40 41 42 43 44 45 46 47 48 49 50
000
ASUS43 KTOP 010108
RWRKS

WEATHER ROUNDUP FOR KANSAS
NATIONAL WEATHER SERVICE GOODLAND KS
700 PM CST SAT JAN 31 2015

NOTE:  "FAIR" INDICATES FEW OR NO CLOUDS BELOW 12,000 FEET WITH NO
SIGNIFICANT WEATHER AND/OR OBSTRUCTIONS TO VISIBILITY.

KSZ001>006-013>018-027>032-041>047-010200-
NORTHWEST KANSAS

CITY           SKY/WX    TMP DP  RH WIND       PRES   REMARKS
GOODLAND       LGT SNOW  33  32  96 N9        29.80R FOG
HAYS           CLOUDY    39  32  75 S8        29.79F
HILL CITY      CLOUDY    39  38  96 NE3       29.79S FOG
RUSSELL        LGT RAIN  39  38  96 S10       29.80F WCI  32
$$

KSZ061>065-074>080-084>089-010200-
SOUTHWEST KANSAS

CITY           SKY/WX    TMP DP  RH WIND       PRES   REMARKS
DODGE CITY     CLOUDY    40  37  89 S9        29.80R
ELKHART          N/A     43  37  79 SW2         N/A
GARDEN CITY    CLOUDY    40  38  93 S3        29.77R
LIBERAL        CLOUDY    41  36  81 S7        29.81S
PRATT          LGT RAIN  37  37 100 S14       29.84F WCI  29
$$

KSZ066>073-081>083-090>101-010200-
SOUTHEAST KANSAS

CITY           SKY/WX    TMP DP  RH WIND       PRES   REMARKS
CHANUTE        LGT RAIN  38  37  97 SE7       29.96F
COFFEYVILLE    LGT RAIN  40  38  93 CALM      29.98F
HUTCHINSON     LGT RAIN  40  37  89 S13       29.86F WCI  32
MEDICINE LODGE   N/A     40  40 100 S13       29.85S WCI  32
NEWTON         CLOUDY    37  32  81 S18       29.89F WCI  27
PARSONS        LGT RAIN  39  38  96 CALM      29.98F
WICHITA INTL   LGT RAIN  39  32  76 S17       29.89S WCI  30
WICHITA JABRA  LGT RAIN  38  38 100 S15       29.89F WCI  29
WICHITA MCCONL LGT RAIN  38  37  95 SE15      29.90S WCI  30
WINFIELD       LGT RAIN  39  31  72 S10       29.92S WCI  32
$$

KSZ007>012-019>026-033>040-048>060-102>105-010200-
NORTHEAST KANSAS

CITY           SKY/WX    TMP DP  RH WIND       PRES   REMARKS
CONCORDIA      LGT RAIN  34  34 100 E3        29.85F FOG
EMPORIA        LGT RAIN  36  36 100 SE16      29.92F FOG     WCI  26
LAWRENCE       LGT RAIN  35  34  96 SE10      29.97F FOG     WCI  27
MANHATTAN      LGT RAIN  38  37  97 S6        29.90F FOG
MARYSVILLE     LGT SNOW  32  32 100 SE7       29.89F
OLATHE IND     LGT RAIN  36  35  96 SE8       29.98F FOG
OLATHE EXE     LGT RAIN  36  35  96 SE6       29.97F FOG
SALINA         LGT RAIN  40  37  89 S9        29.87F
TOPEKA BILLARD LGT RAIN  37  35  92 SE13      29.96S WCI  29
TOPEKA FORBES  LGT RAIN  37  35  92 SE14      29.94S FOG     WCI  28
$$



USA.gov is the U.S. government's official web portal to all federal, state and local government web resources and services.